| time (UTC) | temp F | wind direction | speed MPH | gust MPH | rain 1hr in | rain 24hr in | rain mn in | humidity % | barometer mb |
| 20260905162514 | 88 | 223 | 1.0 | 4.0 | 0.00 | 0.00 | 0.00 | 52 | 1016.8 |
| 20260905162306 | 88 | 288 | 2.0 | 3.0 | 0.00 | 0.00 | 0.00 | 52 | 1015.8 |
| 20260905162012 | 89 | 314 | 1.0 | 4.0 | 0.00 | 0.00 | 0.00 | 51 | 1016.7 |
| 20260905161803 | 89 | 306 | 1.0 | 3.0 | 0.00 | 0.00 | 0.00 | 51 | 1015.7 |
| 20260905161549 | 88 | 300 | 2.0 | 4.0 | 0.00 | 0.00 | 0.00 | 100 | 1017.2 |
| 20260905161513 | 89 | 300 | 3.0 | 4.0 | 0.00 | 0.00 | 0.00 | 50 | 1016.6 |
| 20260905161303 | 89 | 312 | 2.0 | 5.0 | 0.00 | 0.00 | 0.00 | 51 | 1015.7 |
| 20260905161012 | 89 | 269 | 2.0 | 4.0 | 0.00 | 0.00 | 0.00 | 50 | 1016.6 |
| 20260905160803 | 89 | 321 | 2.0 | 3.0 | 0.00 | 0.00 | 0.00 | 50 | 1015.7 |
| 20260905160515 | 89 | 269 | 2.0 | 5.0 | 0.00 | 0.00 | 0.00 | 50 | 1016.6 |
| 20260905160045 | 88 | 296 | 2.0 | 5.0 | 0.00 | 0.00 | 0.00 | 100 | 1017.2 |
| 20260905160012 | 89 | 285 | 2.0 | 5.0 | 0.00 | 0.00 | 0.00 | 50 | 1016.6 |
| 20260905155803 | 89 | 318 | 2.0 | 3.0 | 0.00 | 0.00 | 0.00 | 50 | 1015.7 |
| 20260905155513 | 89 | 45 | 3.0 | 6.0 | 0.00 | 0.00 | 0.00 | 51 | 1016.6 |
| 20260905155012 | 90 | 348 | 4.0 | 6.0 | 0.00 | 0.00 | 0.00 | 50 | 1016.6 |
| 20260905154803 | 90 | 316 | 2.0 | 8.0 | 0.00 | 0.00 | 0.00 | 51 | 1015.8 |
| 20260905154553 | 90 | 9 | 2.0 | 4.0 | 0.00 | 0.00 | 0.00 | 100 | 1017.2 |
| 20260905154515 | 91 | 286 | 2.0 | 51.0 | 0.00 | 0.00 | 0.00 | 52 | 1016.7 |
| 20260905154303 | 91 | 272 | 2.0 | 3.0 | 0.00 | 0.00 | 0.00 | 51 | 1015.7 |
| 20260905154230 | 92 | 341 | 2.0 | 4.0 | 0.00 | 0.00 | 0.00 | 52 | 1016.7 |
| 20260905154210 | 91 | 23 | 4.0 | 51.0 | 0.00 | 0.00 | 0.00 | 51 | 1016.7 |
| 20260905153303 | 92 | 288 | 2.0 | 5.0 | 0.00 | 0.00 | 0.00 | 51 | 1015.8 |
| 20260905153041 | 91 | 0 | 1.0 | 4.0 | 0.00 | 0.00 | 0.00 | 100 | 1017.3 |
| 20260905153010 | 92 | 1 | 1.0 | 5.0 | 0.00 | 0.00 | 0.00 | 50 | 1016.8 |
| 20260905152803 | 92 | 282 | 2.0 | 3.0 | 0.00 | 0.00 | 0.00 | 50 | 1015.9 |
| 20260905152516 | 92 | 324 | 2.0 | 5.0 | 0.00 | 0.00 | 0.00 | 50 | 1016.8 |
| 20260905152306 | 92 | 299 | 2.0 | 5.0 | 0.00 | 0.00 | 0.00 | 49 | 1015.8 |
| 20260905152239 | 92 | 310 | 2.0 | 5.0 | 0.00 | 0.00 | 0.00 | 49 | 1016.7 |
| 20260905152006 | 93 | 303 | 3.0 | 5.0 | 0.00 | 0.00 | 0.00 | 48 | 1016.8 |
| 20260905151803 | 92 | 344 | 3.0 | 7.0 | 0.00 | 0.00 | 0.00 | 49 | 1015.8 |
| 20260905151547 | 92 | 303 | 2.0 | 6.0 | 0.00 | 0.00 | 0.00 | 100 | 1017.3 |
| 20260905151303 | 93 | 287 | 3.0 | 6.0 | 0.00 | 0.00 | 0.00 | 48 | 1015.9 |
| 20260905151011 | 93 | 341 | 3.0 | 5.0 | 0.00 | 0.00 | 0.00 | 50 | 1016.9 |
| 20260905150803 | 93 | 274 | 3.0 | 5.0 | 0.00 | 0.00 | 0.00 | 50 | 1015.9 |
| 20260905150513 | 93 | 298 | 2.0 | 4.0 | 0.00 | 0.00 | 0.00 | 51 | 1016.9 |
| 20260905150303 | 93 | 264 | 2.0 | 3.0 | 0.00 | 0.00 | 0.00 | 51 | 1015.9 |
| 20260905150046 | 93 | 309 | 1.0 | 4.0 | 0.00 | 0.00 | 0.00 | 100 | 1017.4 |
| 20260905150010 | 93 | 314 | 2.0 | 5.0 | 0.00 | 0.00 | 0.00 | 50 | 1016.9 |
| 20260905145803 | 93 | 283 | 2.0 | 5.0 | 0.00 | 0.00 | 0.00 | 50 | 1015.9 |
| 20260905145512 | 93 | 334 | 2.0 | 5.0 | 0.00 | 0.00 | 0.00 | 51 | 1016.9 |
| 20260905145306 | 93 | 274 | 2.0 | 7.0 | 0.00 | 0.00 | 0.00 | 50 | 1015.8 |
| 20260905145011 | 93 | 299 | 2.0 | 6.0 | 0.00 | 0.00 | 0.00 | 51 | 1016.9 |
| 20260905144803 | 93 | 320 | 2.0 | 7.0 | 0.00 | 0.00 | 0.00 | 50 | 1015.8 |
| 20260905144544 | 93 | 295 | 3.0 | 5.0 | 0.00 | 0.00 | 0.00 | 100 | 1017.4 |
| 20260905144511 | 94 | 319 | 4.0 | 7.0 | 0.00 | 0.00 | 0.00 | 50 | 1016.9 |
| 20260905144303 | 94 | 310 | 2.0 | 6.0 | 0.00 | 0.00 | 0.00 | 50 | 1015.9 |
| 20260905144012 | 94 | 331 | 3.0 | 7.0 | 0.00 | 0.00 | 0.00 | 49 | 1016.9 |
| 20260905143803 | 94 | 316 | 3.0 | 8.0 | 0.00 | 0.00 | 0.00 | 49 | 1015.9 |
| 20260905143737 | 94 | 321 | 2.0 | 6.0 | 0.00 | 0.00 | 0.00 | 51 | 1016.9 |
| 20260905143303 | 94 | 274 | 1.0 | 5.0 | 0.00 | 0.00 | 0.00 | 52 | 1016.0 |
| 20260905143049 | 94 | 332 | 2.0 | 4.0 | 0.00 | 0.00 | 0.00 | 100 | 1017.5 |
| 20260905143010 | 94 | 337 | 2.0 | 6.0 | 0.00 | 0.00 | 0.00 | 51 | 1017.0 |
| 20260905142803 | 94 | 277 | 2.0 | 6.0 | 0.00 | 0.00 | 0.00 | 51 | 1016.0 |
| 20260905142515 | 94 | 296 | 3.0 | 6.0 | 0.00 | 0.00 | 0.00 | 50 | 1017.0 |
| 20260905142305 | 94 | 292 | 2.0 | 5.0 | 0.00 | 0.00 | 0.00 | 51 | 1016.0 |
| 20260905142010 | 94 | 343 | 1.0 | 3.0 | 0.00 | 0.00 | 0.00 | 51 | 1017.0 |
| 20260905141803 | 94 | 292 | 1.0 | 3.0 | 0.00 | 0.00 | 0.00 | 52 | 1016.0 |
| 20260905141548 | 93 | 265 | 1.0 | 3.0 | 0.00 | 0.00 | 0.00 | 100 | 1017.6 |
| 20260905141510 | 94 | 314 | 2.0 | 4.0 | 0.00 | 0.00 | 0.00 | 50 | 1017.1 |
| 20260905141303 | 94 | 321 | 2.0 | 3.0 | 0.00 | 0.00 | 0.00 | 51 | 1016.1 |
| 20260905141009 | 94 | 327 | 2.0 | 4.0 | 0.00 | 0.00 | 0.00 | 51 | 1017.1 |
| 20260905140803 | 94 | 298 | 2.0 | 3.0 | 0.00 | 0.00 | 0.00 | 50 | 1016.1 |
| 20260905140510 | 94 | 269 | 2.0 | 4.0 | 0.00 | 0.00 | 0.00 | 52 | 1017.2 |
| 20260905140303 | 94 | 259 | 2.0 | 3.0 | 0.00 | 0.00 | 0.00 | 52 | 1016.1 |
| 20260905140047 | 93 | 319 | 1.0 | 2.0 | 0.00 | 0.00 | 0.00 | 100 | 1017.6 |
| 20260905140009 | 94 | 296 | 2.0 | 4.0 | 0.00 | 0.00 | 0.00 | 52 | 1017.2 |
| 20260905135803 | 93 | 283 | 2.0 | 3.0 | 0.00 | 0.00 | 0.00 | 53 | 1016.2 |
| 20260905135739 | 93 | 314 | 1.0 | 4.0 | 0.00 | 0.00 | 0.00 | 52 | 1017.2 |
| 20260905135010 | 93 | 314 | 2.0 | 5.0 | 0.00 | 0.00 | 0.00 | 54 | 1017.2 |
| 20260905134543 | 92 | 137 | 2.0 | 3.0 | 0.00 | 0.00 | 0.00 | 100 | 1017.8 |
| 20260905134510 | 93 | 223 | 2.0 | 5.0 | 0.00 | 0.00 | 0.00 | 53 | 1017.4 |
| 20260905134304 | 92 | 265 | 2.0 | 5.0 | 0.00 | 0.00 | 0.00 | 55 | 1016.3 |
| 20260905134009 | 92 | 341 | 2.0 | 3.0 | 0.00 | 0.00 | 0.00 | 53 | 1017.4 |
| 20260905133803 | 93 | 46 | 1.0 | 3.0 | 0.00 | 0.00 | 0.00 | 54 | 1016.3 |
| 20260905133514 | 92 | 223 | 2.0 | 3.0 | 0.00 | 0.00 | 0.00 | 54 | 1017.4 |
| 20260905133303 | 92 | 277 | 1.0 | 3.0 | 0.00 | 0.00 | 0.00 | 54 | 1016.3 |
| 20260905133041 | 91 | 38 | 1.0 | 4.0 | 0.00 | 0.00 | 0.00 | 100 | 1017.8 |
| 20260905133008 | 92 | 331 | 2.0 | 4.0 | 0.00 | 0.00 | 0.00 | 53 | 1017.4 |
| 20260905132512 | 91 | 321 | 1.0 | 4.0 | 0.00 | 0.00 | 0.00 | 54 | 1017.4 |
| 20260905132305 | 91 | 311 | 3.0 | 3.0 | 0.00 | 0.00 | 0.00 | 53 | 1016.4 |
| 20260905132008 | 91 | 338 | 2.0 | 4.0 | 0.00 | 0.00 | 0.00 | 55 | 1017.5 |
| 20260905131803 | 91 | 43 | 1.0 | 3.0 | 0.00 | 0.00 | 0.00 | 55 | 1016.4 |
| 20260905131558 | 90 | 26 | 1.0 | 3.0 | 0.00 | 0.00 | 0.00 | 100 | 1018.1 |
| 20260905131522 | 91 | 289 | 2.0 | 4.0 | 0.00 | 0.00 | 0.00 | 54 | 1017.5 |
| 20260905131303 | 91 | 24 | 2.0 | 3.0 | 0.00 | 0.00 | 0.00 | 53 | 1016.5 |
| 20260905131009 | 91 | 341 | 1.0 | 4.0 | 0.00 | 0.00 | 0.00 | 55 | 1017.6 |
| 20260905130511 | 90 | 32 | 2.0 | 6.0 | 0.00 | 0.00 | 0.00 | 54 | 1017.6 |
| 20260905130303 | 90 | 333 | 1.0 | 7.0 | 0.00 | 0.00 | 0.00 | 55 | 1016.6 |
| 20260905130044 | 90 | 61 | 2.0 | 4.0 | 0.00 | 0.00 | 0.00 | 100 | 1018.2 |
| 20260905130007 | 90 | 76 | 3.0 | 6.0 | 0.00 | 0.00 | 0.00 | 57 | 1017.7 |
| 20260905125803 | 90 | 102 | 1.0 | 2.0 | 0.00 | 0.00 | 0.00 | 56 | 1016.7 |
| 20260905125738 | 90 | 54 | 2.0 | 4.0 | 0.00 | 0.00 | 0.00 | 56 | 1017.7 |
| 20260905125306 | 90 | 334 | 2.0 | 5.0 | 0.00 | 0.00 | 0.00 | 57 | 1016.7 |
| 20260905125237 | 89 | 10 | 1.0 | 3.0 | 0.00 | 0.00 | 0.00 | 59 | 1017.7 |
| 20260905124804 | 89 | 14 | 1.0 | 2.0 | 0.00 | 0.00 | 0.00 | 58 | 1016.7 |
| 20260905124552 | 89 | 51 | 1.0 | 3.0 | 0.00 | 0.00 | 0.00 | 100 | 1018.4 |
| 20260905124509 | 89 | 45 | 1.0 | 3.0 | 0.00 | 0.00 | 0.00 | 59 | 1017.7 |
| 20260905124303 | 89 | 292 | 2.0 | 3.0 | 0.00 | 0.00 | 0.00 | 60 | 1016.8 |
| 20260905124009 | 89 | 1 | 2.0 | 3.0 | 0.00 | 0.00 | 0.00 | 61 | 1017.8 |
| 20260905123803 | 89 | 39 | 1.0 | 3.0 | 0.00 | 0.00 | 0.00 | 60 | 1016.9 |
| 20260905123510 | 88 | 20 | 2.0 | 3.0 | 0.00 | 0.00 | 0.00 | 61 | 1017.9 |
| 20260905123304 | 88 | 307 | 2.0 | 3.0 | 0.00 | 0.00 | 0.00 | 60 | 1017.0 |
| 20260905123056 | 88 | 26 | 1.0 | 2.0 | 0.00 | 0.00 | 0.00 | 100 | 1018.5 |
| 20260905123007 | 88 | 23 | 2.0 | 3.0 | 0.00 | 0.00 | 0.00 | 61 | 1017.9 |
| 20260905122803 | 88 | 39 | 2.0 | 3.0 | 0.00 | 0.00 | 0.00 | 61 | 1017.1 |
| 20260905122508 | 88 | 35 | 2.0 | 4.0 | 0.00 | 0.00 | 0.00 | 62 | 1018.0 |
| 20260905122306 | 88 | 21 | 2.0 | 3.0 | 0.00 | 0.00 | 0.00 | 62 | 1017.2 |
| 20260905122008 | 88 | 104 | 2.0 | 4.0 | 0.00 | 0.00 | 0.00 | 61 | 1018.0 |
| 20260905121953 | 88 | 72 | 1.0 | 3.0 | 0.00 | 0.00 | 0.00 | 62 | 1018.0 |
| 20260905121803 | 88 | 35 | 2.0 | 3.0 | 0.00 | 0.00 | 0.00 | 62 | 1017.2 |
| 20260905121542 | 88 | 316 | 1.0 | 2.0 | 0.00 | 0.00 | 0.00 | 100 | 1018.7 |
| 20260905121303 | 88 | 34 | 1.0 | 3.0 | 0.00 | 0.00 | 0.00 | 62 | 1017.3 |
| 20260905121007 | 88 | 341 | 2.0 | 3.0 | 0.00 | 0.00 | 0.00 | 62 | 1018.1 |
| 20260905120803 | 88 | 18 | 1.0 | 3.0 | 0.00 | 0.00 | 0.00 | 62 | 1017.4 |
| 20260905120744 | 88 | 1 | 1.0 | 3.0 | 0.00 | 0.00 | 0.00 | 63 | 1018.1 |
| 20260905120304 | 88 | 72 | 1.0 | 3.0 | 0.00 | 0.00 | 0.00 | 63 | 1017.5 |
| 20260905120232 | 88 | 1 | 2.0 | 3.0 | 0.00 | 0.00 | 0.00 | 63 | 1018.2 |
| 20260905120045 | 87 | 336 | 1.0 | 2.0 | 0.00 | 0.00 | 0.00 | 100 | 1018.9 |
| 20260905115804 | 88 | 321 | 1.0 | 3.0 | 0.00 | 0.00 | 0.00 | 64 | 1017.5 |
| 20260905115508 | 87 | 314 | 2.0 | 3.0 | 0.00 | 0.00 | 0.00 | 63 | 1018.3 |
| 20260905115306 | 87 | 347 | 1.0 | 3.0 | 0.00 | 0.00 | 0.00 | 65 | 1017.6 |
| 20260905115010 | 87 | 300 | 1.0 | 3.0 | 0.00 | 0.00 | 0.00 | 63 | 1018.3 |
| 20260905114804 | 87 | 308 | 1.0 | 3.0 | 0.00 | 0.00 | 0.00 | 65 | 1017.6 |
| 20260905114546 | 86 | 51 | 1.0 | 2.0 | 0.00 | 0.00 | 0.00 | 100 | 1019.1 |
| 20260905114509 | 87 | 296 | 2.0 | 3.0 | 0.00 | 0.00 | 0.00 | 63 | 1018.4 |
| 20260905114304 | 87 | 338 | 1.0 | 3.0 | 0.00 | 0.00 | 0.00 | 62 | 1017.7 |
| 20260905114006 | 87 | 283 | 2.0 | 3.0 | 0.00 | 0.00 | 0.00 | 63 | 1018.4 |
| 20260905113803 | 87 | 280 | 1.0 | 3.0 | 0.00 | 0.00 | 0.00 | 63 | 1017.7 |
| 20260905113508 | 86 | 223 | 1.0 | 3.0 | 0.00 | 0.00 | 0.00 | 63 | 1018.4 |
| 20260905113303 | 86 | 306 | 2.0 | 3.0 | 0.00 | 0.00 | 0.00 | 64 | 1017.7 |
| 20260905113043 | 86 | 9 | 1.0 | 2.0 | 0.00 | 0.00 | 0.00 | 100 | 1019.1 |
| 20260905113006 | 86 | 323 | 2.0 | 3.0 | 0.00 | 0.00 | 0.00 | 64 | 1018.5 |
| 20260905112804 | 86 | 264 | 1.0 | 3.0 | 0.00 | 0.00 | 0.00 | 64 | 1017.7 |
| 20260905112511 | 86 | 320 | 1.0 | 9.0 | 0.00 | 0.00 | 0.00 | 64 | 1018.5 |
| 20260905112305 | 86 | 282 | 1.0 | 3.0 | 0.00 | 0.00 | 0.00 | 64 | 1017.8 |
| 20260905112005 | 86 | 314 | 2.0 | 9.0 | 0.00 | 0.00 | 0.00 | 62 | 1018.5 |
| 20260905111803 | 85 | 313 | 2.0 | 3.0 | 0.00 | 0.00 | 0.00 | 63 | 1017.8 |
| 20260905111552 | 85 | 319 | 1.0 | 3.0 | 0.00 | 0.00 | 0.00 | 100 | 1019.2 |
| 20260905111519 | 85 | 324 | 2.0 | 4.0 | 0.00 | 0.00 | 0.00 | 62 | 1018.5 |
| 20260905111303 | 85 | 250 | 1.0 | 3.0 | 0.00 | 0.00 | 0.00 | 61 | 1017.9 |
| 20260905111006 | 85 | 223 | 1.0 | 3.0 | 0.00 | 0.00 | 0.00 | 60 | 1018.6 |
| 20260905110803 | 85 | 280 | 2.0 | 3.0 | 0.00 | 0.00 | 0.00 | 59 | 1017.9 |
| 20260905110508 | 85 | 303 | 1.0 | 2.0 | 0.00 | 0.00 | 0.00 | 61 | 1018.7 |
| 20260905110306 | 84 | 259 | 1.0 | 3.0 | 0.00 | 0.00 | 0.00 | 62 | 1018.0 |
| 20260905110046 | 84 | 247 | 1.0 | 1.0 | 0.00 | 0.00 | 0.00 | 100 | 1019.5 |
| 20260905110005 | 84 | 279 | 1.0 | 2.0 | 0.00 | 0.00 | 0.00 | 64 | 1018.7 |
| 20260905105803 | 84 | 244 | 1.0 | 2.0 | 0.00 | 0.00 | 0.00 | 66 | 1018.1 |
| 20260905105509 | 84 | 234 | 1.0 | 2.0 | 0.00 | 0.00 | 0.00 | 64 | 1018.9 |
| 20260905105237 | 83 | 319 | 1.0 | 2.0 | 0.00 | 0.00 | 0.00 | 68 | 1018.9 |
| 20260905104803 | 83 | 292 | 1.0 | 2.0 | 0.00 | 0.00 | 0.00 | 67 | 1018.2 |
| 20260905104545 | 82 | 329 | 1.0 | 2.0 | 0.00 | 0.00 | 0.00 | 100 | 1019.6 |
| 20260905104508 | 83 | 303 | 1.0 | 2.0 | 0.00 | 0.00 | 0.00 | 68 | 1018.9 |
| 20260905104304 | 83 | 245 | 1.0 | 2.0 | 0.00 | 0.00 | 0.00 | 67 | 1018.2 |
| 20260905104005 | 82 | 223 | 1.0 | 2.0 | 0.00 | 0.00 | 0.00 | 70 | 1018.9 |
| 20260905103803 | 82 | 267 | 1.0 | 2.0 | 0.00 | 0.00 | 0.00 | 69 | 1018.2 |
| 20260905103506 | 82 | 269 | 1.0 | 2.0 | 0.00 | 0.00 | 0.00 | 70 | 1019.0 |
| 20260905103303 | 82 | 250 | 1.0 | 3.0 | 0.00 | 0.00 | 0.00 | 70 | 1018.2 |
| 20260905103042 | 81 | 0 | 1.0 | 2.0 | 0.00 | 0.00 | 0.00 | 100 | 1019.7 |
| 20260905103005 | 82 | 327 | 1.0 | 3.0 | 0.00 | 0.00 | 0.00 | 71 | 1018.9 |
| 20260905102506 | 81 | 314 | 1.0 | 3.0 | 0.00 | 0.00 | 0.00 | 72 | 1018.9 |
| 20260905102306 | 81 | 305 | 1.0 | 3.0 | 0.00 | 0.00 | 0.00 | 73 | 1018.3 |
| 20260905102005 | 81 | 296 | 1.0 | 3.0 | 0.00 | 0.00 | 0.00 | 72 | 1019.0 |
| 20260905101803 | 81 | 343 | 1.0 | 2.0 | 0.00 | 0.00 | 0.00 | 73 | 1018.3 |
| 20260905101545 | 80 | 9 | 1.0 | 2.0 | 0.00 | 0.00 | 0.00 | 100 | 1019.7 |
| 20260905101506 | 80 | 314 | 1.0 | 2.0 | 0.00 | 0.00 | 0.00 | 75 | 1019.0 |
| 20260905101303 | 80 | 277 | 1.0 | 2.0 | 0.00 | 0.00 | 0.00 | 75 | 1018.3 |
| 20260905101004 | 80 | 314 | 1.0 | 3.0 | 0.00 | 0.00 | 0.00 | 76 | 1019.0 |
| 20260905100804 | 80 | 288 | 1.0 | 2.0 | 0.00 | 0.00 | 0.00 | 75 | 1018.3 |
| 20260905100505 | 79 | 324 | 1.0 | 3.0 | 0.00 | 0.00 | 0.00 | 76 | 1019.0 |
| 20260905100303 | 79 | 183 | 1.0 | 3.0 | 0.00 | 0.00 | 0.00 | 76 | 1018.4 |
| 20260905100045 | 79 | 221 | 1.0 | 2.0 | 0.00 | 0.00 | 0.00 | 100 | 1019.9 |
| 20260905100003 | 79 | 223 | 1.0 | 3.0 | 0.00 | 0.00 | 0.00 | 76 | 1019.0 |
| 20260905095804 | 79 | 253 | 1.0 | 3.0 | 0.00 | 0.00 | 0.00 | 77 | 1018.4 |
| 20260905095505 | 79 | 269 | 2.0 | 3.0 | 0.00 | 0.00 | 0.00 | 77 | 1019.1 |
| 20260905095004 | 78 | 45 | 1.0 | 2.0 | 0.00 | 0.00 | 0.00 | 78 | 1019.0 |
| 20260905094803 | 78 | 29 | 1.0 | 2.0 | 0.00 | 0.00 | 0.00 | 78 | 1018.4 |
| 20260905094542 | 77 | 0 | 0.0 | 1.0 | 0.00 | 0.00 | 0.00 | 100 | 1019.8 |
| 20260905094505 | 78 | 331 | 0.0 | 2.0 | 0.00 | 0.00 | 0.00 | 80 | 1019.0 |
| 20260905094303 | 78 | 224 | 0.0 | 1.0 | 0.00 | 0.00 | 0.00 | 80 | 1018.4 |
| 20260905094004 | 77 | 223 | 1.0 | 2.0 | 0.00 | 0.00 | 0.00 | 81 | 1019.1 |
| 20260905093803 | 77 | 20 | 1.0 | 2.0 | 0.00 | 0.00 | 0.00 | 81 | 1018.5 |
| 20260905093506 | 76 | 223 | 0.0 | 2.0 | 0.00 | 0.00 | 0.00 | 81 | 1019.2 |
| 20260905093459 | 76 | 269 | 0.0 | 2.0 | 0.00 | 0.00 | 0.00 | 81 | 1019.1 |
| 20260905093303 | 76 | 87 | 0.0 | 2.0 | 0.00 | 0.00 | 0.00 | 81 | 1018.5 |
| 20260905093043 | 75 | 68 | 0.0 | 1.0 | 0.00 | 0.00 | 0.00 | 100 | 1019.9 |
| 20260905092505 | 75 | 72 | 1.0 | 2.0 | 0.00 | 0.00 | 0.00 | 82 | 1019.2 |
| 20260905092306 | 75 | 317 | 0.0 | 2.0 | 0.00 | 0.00 | 0.00 | 82 | 1018.4 |
| 20260905092005 | 75 | 178 | 0.0 | 2.0 | 0.00 | 0.00 | 0.00 | 82 | 1019.1 |
| 20260905091803 | 75 | 198 | 1.0 | 2.0 | 0.00 | 0.00 | 0.00 | 82 | 1018.5 |
| 20260905091546 | 74 | 44 | 0.0 | 2.0 | 0.00 | 0.00 | 0.00 | 100 | 1020.0 |
| 20260905091505 | 75 | 16 | 0.0 | 2.0 | 0.00 | 0.00 | 0.00 | 82 | 1019.2 |
| 20260905091304 | 74 | 24 | 1.0 | 2.0 | 0.00 | 0.00 | 0.00 | 82 | 1018.5 |
| 20260905091003 | 74 | 337 | 1.0 | 2.0 | 0.00 | 0.00 | 0.00 | 84 | 1019.2 |
| 20260905090457 | 73 | 223 | 1.0 | 2.0 | 0.00 | 0.00 | 0.00 | 82 | 1019.2 |
| 20260905090304 | 73 | 161 | 0.0 | 2.0 | 0.00 | 0.00 | 0.00 | 82 | 1018.5 |
| 20260905090045 | 73 | 265 | 1.0 | 2.0 | 0.00 | 0.00 | 0.00 | 100 | 1019.9 |
| 20260905085935 | 73 | 178 | 1.0 | 4.0 | 0.00 | 0.00 | 0.00 | 82 | 1019.2 |
| 20260905085803 | 73 | 325 | 1.0 | 3.0 | 0.00 | 0.00 | 0.00 | 81 | 1018.4 |
| 20260905085432 | 73 | 269 | 1.0 | 4.0 | 0.00 | 0.00 | 0.00 | 83 | 1019.1 |
| 20260905085423 | 73 | 292 | 2.0 | 3.0 | 0.00 | 0.00 | 0.00 | 88 | 1019.1 |
| 20260905085305 | 73 | 325 | 1.0 | 3.0 | 0.00 | 0.00 | 0.00 | 83 | 1018.4 |
| 20260905084803 | 73 | 34 | 1.0 | 2.0 | 0.00 | 0.00 | 0.00 | 88 | 1018.4 |
| 20260905084600 | 72 | 330 | 0.0 | 2.0 | 0.00 | 0.00 | 0.00 | 100 | 1019.9 |
| 20260905084432 | 72 | 45 | 1.0 | 3.0 | 0.00 | 0.00 | 0.00 | 89 | 1019.1 |
| 20260905084303 | 72 | 52 | 1.0 | 2.0 | 0.00 | 0.00 | 0.00 | 89 | 1018.4 |
| 20260905084153 | 72 | 309 | 1.0 | 3.0 | 0.00 | 0.00 | 0.00 | 89 | 1019.1 |
| 20260905083803 | 72 | 353 | 1.0 | 3.0 | 0.00 | 0.00 | 0.00 | 89 | 1018.4 |
| 20260905083417 | 71 | 303 | 2.0 | 3.0 | 0.00 | 0.00 | 0.00 | 91 | 1019.1 |
| 20260905083303 | 71 | 308 | 1.0 | 3.0 | 0.00 | 0.00 | 0.00 | 91 | 1018.4 |
| 20260905083049 | 71 | 9 | 1.0 | 2.0 | 0.00 | 0.00 | 0.00 | 100 | 1019.8 |
| 20260905082919 | 71 | 319 | 1.0 | 2.0 | 0.00 | 0.00 | 0.00 | 92 | 1019.0 |
| 20260905082414 | 71 | 20 | 1.0 | 2.0 | 0.00 | 0.00 | 0.00 | 92 | 1019.0 |
| 20260905082307 | 70 | 13 | 1.0 | 2.0 | 0.00 | 0.00 | 0.00 | 93 | 1018.3 |
| 20260905081911 | 70 | 165 | 1.0 | 1.0 | 0.00 | 0.00 | 0.00 | 93 | 1019.0 |
| 20260905081547 | 69 | 0 | 0.0 | 1.0 | 0.00 | 0.00 | 0.00 | 100 | 1019.7 |
| 20260905081410 | 70 | 45 | 1.0 | 1.0 | 0.00 | 0.00 | 0.00 | 94 | 1019.0 |
| 20260905081303 | 70 | 20 | 0.0 | 2.0 | 0.00 | 0.00 | 0.00 | 94 | 1018.3 |
| 20260905080906 | 69 | 223 | 1.0 | 2.0 | 0.00 | 0.00 | 0.00 | 94 | 1018.9 |
| 20260905080804 | 69 | 149 | 1.0 | 1.0 | 0.00 | 0.00 | 0.00 | 94 | 1018.3 |
| 20260905080639 | 69 | 45 | 0.0 | 2.0 | 0.00 | 0.00 | 0.00 | 94 | 1018.9 |
| 20260905080304 | 69 | 105 | 1.0 | 2.0 | 0.00 | 0.00 | 0.00 | 94 | 1018.3 |
| 20260905080042 | 68 | 178 | 0.0 | 2.0 | 0.00 | 0.00 | 0.00 | 100 | 1019.7 |
| 20260905075902 | 69 | 63 | 0.0 | 2.0 | 0.00 | 0.00 | 0.00 | 94 | 1018.9 |
| 20260905075804 | 69 | 302 | 0.0 | 2.0 | 0.00 | 0.00 | 0.00 | 94 | 1018.3 |
| 20260905075634 | 68 | 1 | 1.0 | 2.0 | 0.00 | 0.00 | 0.00 | 95 | 1018.9 |
| 20260905075306 | 68 | 320 | 1.0 | 2.0 | 0.00 | 0.00 | 0.00 | 95 | 1018.3 |
| 20260905074902 | 68 | 314 | 1.0 | 2.0 | 0.00 | 0.00 | 0.00 | 95 | 1018.9 |
| 20260905074803 | 68 | 332 | 1.0 | 2.0 | 0.00 | 0.00 | 0.00 | 95 | 1018.3 |
| 20260905074552 | 67 | 265 | 0.0 | 1.0 | 0.00 | 0.00 | 0.00 | 100 | 1019.7 |
| 20260905074409 | 67 | 206 | 1.0 | 2.0 | 0.00 | 0.00 | 0.00 | 95 | 1018.9 |
| 20260905074405 | 67 | 314 | 1.0 | 2.0 | 0.00 | 0.00 | 0.00 | 95 | 1018.8 |
| 20260905074303 | 67 | 155 | 1.0 | 2.0 | 0.00 | 0.00 | 0.00 | 95 | 1018.3 |
| 20260905073403 | 67 | 1 | 1.0 | 2.0 | 0.00 | 0.00 | 0.00 | 95 | 1018.8 |
| 20260905073303 | 67 | 168 | 1.0 | 2.0 | 0.00 | 0.00 | 0.00 | 95 | 1018.2 |
| 20260905073047 | 66 | 0 | 1.0 | 1.0 | 0.00 | 0.00 | 0.00 | 100 | 1019.8 |
| 20260905072902 | 67 | 216 | 1.0 | 2.0 | 0.00 | 0.00 | 0.00 | 95 | 1019.0 |
| 20260905072803 | 67 | 229 | 1.0 | 2.0 | 0.00 | 0.00 | 0.00 | 95 | 1018.5 |
| 20260905072404 | 66 | 223 | 0.0 | 2.0 | 0.00 | 0.00 | 0.00 | 94 | 1018.9 |
| 20260905072306 | 66 | 34 | 0.0 | 1.0 | 0.00 | 0.00 | 0.00 | 94 | 1018.5 |
| 20260905071902 | 66 | 1 | 1.0 | 2.0 | 0.00 | 0.00 | 0.00 | 94 | 1018.9 |
| 20260905071803 | 66 | 204 | 1.0 | 2.0 | 0.00 | 0.00 | 0.00 | 94 | 1018.4 |
| 20260905071544 | 66 | 0 | 0.0 | 2.0 | 0.00 | 0.00 | 0.00 | 100 | 1019.7 |
| 20260905071407 | 66 | 1 | 1.0 | 3.0 | 0.00 | 0.00 | 0.00 | 94 | 1018.8 |
| 20260905071303 | 66 | 12 | 1.0 | 3.0 | 0.00 | 0.00 | 0.00 | 94 | 1018.4 |
| 20260905070902 | 66 | 172 | 1.0 | 4.0 | 0.00 | 0.00 | 0.00 | 94 | 1018.8 |
| 20260905070803 | 66 | 155 | 1.0 | 3.0 | 0.00 | 0.00 | 0.00 | 94 | 1018.5 |
| 20260905070404 | 66 | 161 | 1.0 | 4.0 | 0.00 | 0.00 | 0.00 | 94 | 1019.0 |
| 20260905070043 | 65 | 149 | 1.0 | 1.0 | 0.00 | 0.00 | 0.00 | 100 | 1019.8 |
| 20260905065902 | 66 | 142 | 1.0 | 2.0 | 0.00 | 0.00 | 0.00 | 94 | 1019.0 |
| 20260905065803 | 66 | 148 | 1.0 | 2.0 | 0.00 | 0.00 | 0.00 | 94 | 1018.5 |
| 20260905065635 | 66 | 178 | 0.0 | 2.0 | 0.00 | 0.00 | 0.00 | 94 | 1018.8 |
| 20260905065359 | 66 | 178 | 1.0 | 2.0 | 0.00 | 0.00 | 0.00 | 94 | 1018.5 |
| 20260905065306 | 66 | 259 | 1.0 | 2.0 | 0.00 | 0.00 | 0.00 | 94 | 1018.2 |
| 20260905064804 | 66 | 314 | 1.0 | 2.0 | 0.00 | 0.00 | 0.00 | 94 | 1018.1 |
| 20260905064542 | 65 | 247 | 0.0 | 1.0 | 0.00 | 0.00 | 0.00 | 100 | 1019.4 |
| 20260905064404 | 66 | 286 | 1.0 | 2.0 | 0.00 | 0.00 | 0.00 | 94 | 1018.7 |
| 20260905064132 | 66 | 45 | 0.0 | 1.0 | 0.00 | 0.00 | 0.00 | 94 | 1018.8 |
| 20260905063804 | 66 | 233 | 0.0 | 1.0 | 0.00 | 0.00 | 0.00 | 94 | 1018.4 |
| 20260905063403 | 66 | 45 | 0.0 | 2.0 | 0.00 | 0.00 | 0.00 | 94 | 1018.9 |
| 20260905063303 | 66 | 142 | 0.0 | 1.0 | 0.00 | 0.00 | 0.00 | 94 | 1018.6 |
| 20260905063049 | 65 | 0 | 0.0 | 1.0 | 0.00 | 0.00 | 0.00 | 100 | 1019.9 |
| 20260905062902 | 66 | 269 | 0.0 | 2.0 | 0.00 | 0.00 | 0.00 | 94 | 1019.1 |
| 20260905062803 | 66 | 233 | 1.0 | 2.0 | 0.00 | 0.00 | 0.00 | 94 | 1018.5 |
| 20260905062403 | 66 | 213 | 1.0 | 3.0 | 0.00 | 0.00 | 0.00 | 94 | 1019.0 |
| 20260905062130 | 66 | 223 | 1.0 | 3.0 | 0.00 | 0.00 | 0.00 | 94 | 1019.2 |
| 20260905061804 | 66 | 203 | 1.0 | 3.0 | 0.00 | 0.00 | 0.00 | 94 | 1018.8 |
| 20260905061548 | 65 | 146 | 0.0 | 2.0 | 0.00 | 0.00 | 0.00 | 100 | 1020.2 |
| 20260905061406 | 66 | 152 | 1.0 | 2.0 | 0.00 | 0.00 | 0.00 | 94 | 1019.3 |
| 20260905061304 | 66 | 229 | 1.0 | 2.0 | 0.00 | 0.00 | 0.00 | 94 | 1018.9 |
| 20260905060904 | 66 | 269 | 1.0 | 2.0 | 0.00 | 0.00 | 0.00 | 94 | 1019.4 |
| 20260905060406 | 66 | 213 | 1.0 | 2.0 | 0.00 | 0.00 | 0.00 | 94 | 1019.4 |
| 20260905060304 | 66 | 222 | 1.0 | 2.0 | 0.00 | 0.00 | 0.00 | 94 | 1018.9 |
| 20260905060043 | 65 | 178 | 0.0 | 2.0 | 0.00 | 0.00 | 0.00 | 100 | 1020.2 |
| 20260905055903 | 66 | 45 | 1.0 | 3.0 | 0.00 | 0.00 | 0.00 | 94 | 1019.4 |
| 20260905055803 | 66 | 66 | 1.0 | 3.0 | 0.00 | 0.00 | 0.00 | 94 | 1018.9 |
| 20260905055402 | 66 | 152 | 1.0 | 3.0 | 0.00 | 0.00 | 0.00 | 94 | 1019.3 |
| 20260905055306 | 66 | 171 | 1.0 | 2.0 | 0.00 | 0.00 | 0.00 | 94 | 1018.8 |
| 20260905055124 | 66 | 159 | 2.0 | 2.0 | 0.00 | 0.00 | 0.00 | 94 | 1019.2 |
| 20260905054803 | 66 | 166 | 1.0 | 2.0 | 0.00 | 0.00 | 0.00 | 94 | 1018.7 |
| 20260905054548 | 65 | 0 | 0.0 | 1.0 | 0.00 | 0.00 | 0.00 | 100 | 1019.8 |
| 20260905054402 | 66 | 206 | 1.0 | 2.0 | 0.00 | 0.00 | 0.00 | 94 | 1019.0 |
| 20260905054304 | 66 | 221 | 1.0 | 2.0 | 0.00 | 0.00 | 0.00 | 94 | 1018.5 |
| 20260905053902 | 66 | 269 | 0.0 | 2.0 | 0.00 | 0.00 | 0.00 | 94 | 1018.9 |
| 20260905053803 | 66 | 170 | 0.0 | 1.0 | 0.00 | 0.00 | 0.00 | 94 | 1018.5 |
| 20260905053402 | 66 | 45 | 0.0 | 2.0 | 0.00 | 0.00 | 0.00 | 94 | 1018.9 |
| 20260905053048 | 65 | 205 | 1.0 | 1.0 | 0.00 | 0.00 | 0.00 | 100 | 1019.7 |
| 20260905052902 | 66 | 234 | 1.0 | 3.0 | 0.00 | 0.00 | 0.00 | 94 | 1018.9 |
| 20260905052803 | 66 | 217 | 1.0 | 2.0 | 0.00 | 0.00 | 0.00 | 94 | 1018.2 |
| 20260905052403 | 66 | 45 | 1.0 | 3.0 | 0.00 | 0.00 | 0.00 | 94 | 1018.7 |
| 20260905051902 | 66 | 142 | 1.0 | 2.0 | 0.00 | 0.00 | 0.00 | 94 | 1018.9 |
| 20260905051853 | 66 | 241 | 1.0 | 3.0 | 0.00 | 0.00 | 0.00 | 94 | 1018.9 |
| 20260905051544 | 65 | 232 | 0.0 | 2.0 | 0.00 | 0.00 | 0.00 | 100 | 1019.6 |
| 20260905051303 | 66 | 70 | 1.0 | 2.0 | 0.00 | 0.00 | 0.00 | 94 | 1018.5 |
| 20260905050902 | 66 | 231 | 1.0 | 3.0 | 0.00 | 0.00 | 0.00 | 94 | 1018.8 |
| 20260905050804 | 66 | 157 | 1.0 | 3.0 | 0.00 | 0.00 | 0.00 | 94 | 1018.4 |
| 20260905050402 | 66 | 54 | 2.0 | 2.0 | 0.00 | 0.00 | 0.00 | 94 | 1018.6 |
| 20260905050127 | 66 | 206 | 1.0 | 2.0 | 0.00 | 0.00 | 0.00 | 94 | 1019.0 |
| 20260905050042 | 65 | 146 | 0.0 | 1.0 | 0.00 | 0.00 | 0.00 | 100 | 1019.8 |
| 20260905045850 | 66 | 206 | 1.0 | 2.0 | 0.00 | 0.00 | 0.00 | 94 | 1018.9 |
| 20260905045804 | 66 | 222 | 0.0 | 2.0 | 0.00 | 0.00 | 0.00 | 94 | 1018.4 |
| 20260905045305 | 66 | 149 | 1.0 | 1.0 | 0.00 | 0.00 | 0.00 | 94 | 1018.5 |
| 20260905044902 | 66 | 89 | 0.0 | 2.0 | 0.00 | 0.00 | 0.00 | 94 | 1018.9 |
| 20260905044803 | 66 | 137 | 0.0 | 1.0 | 0.00 | 0.00 | 0.00 | 94 | 1018.4 |
| 20260905044543 | 65 | 0 | 0.0 | 1.0 | 0.00 | 0.00 | 0.00 | 100 | 1019.7 |
| 20260905044402 | 66 | 314 | 0.0 | 2.0 | 0.00 | 0.00 | 0.00 | 94 | 1019.0 |
| 20260905044304 | 66 | 22 | 0.0 | 1.0 | 0.00 | 0.00 | 0.00 | 94 | 1018.6 |
| 20260905043902 | 66 | 178 | 1.0 | 1.0 | 0.00 | 0.00 | 0.00 | 94 | 1019.1 |
| 20260905043803 | 66 | 135 | 0.0 | 1.0 | 0.00 | 0.00 | 0.00 | 94 | 1018.6 |
| 20260905043404 | 66 | 28 | 0.0 | 1.0 | 0.00 | 0.00 | 0.00 | 94 | 1019.0 |
| 20260905043047 | 65 | 0 | 0.0 | 1.0 | 0.00 | 0.00 | 0.00 | 100 | 1020.0 |
| 20260905042902 | 66 | 45 | 0.0 | 2.0 | 0.00 | 0.00 | 0.00 | 94 | 1019.3 |
| 20260905042402 | 66 | 152 | 1.0 | 2.0 | 0.00 | 0.00 | 0.00 | 94 | 1019.1 |
| 20260905042306 | 66 | 63 | 1.0 | 2.0 | 0.00 | 0.00 | 0.00 | 94 | 1018.6 |
| 20260905041902 | 66 | 223 | 0.0 | 1.0 | 0.00 | 0.00 | 0.00 | 94 | 1019.0 |
| 20260905041803 | 66 | 19 | 0.0 | 1.0 | 0.00 | 0.00 | 0.00 | 94 | 1018.7 |
| 20260905041543 | 65 | 0 | 0.0 | 1.0 | 0.00 | 0.00 | 0.00 | 100 | 1019.8 |
| 20260905041402 | 66 | 314 | 0.0 | 2.0 | 0.00 | 0.00 | 0.00 | 94 | 1019.0 |
| 20260905041303 | 66 | 228 | 0.0 | 2.0 | 0.00 | 0.00 | 0.00 | 94 | 1018.7 |
| 20260905040902 | 66 | 89 | 1.0 | 2.0 | 0.00 | 0.00 | 0.00 | 94 | 1019.3 |
| 20260905040403 | 65 | 223 | 0.0 | 2.0 | 0.00 | 0.00 | 0.00 | 94 | 1019.4 |
| 20260905040304 | 66 | 191 | 1.0 | 1.0 | 0.00 | 0.00 | 0.00 | 94 | 1018.9 |
| 20260905040050 | 65 | 221 | 1.0 | 1.0 | 0.00 | 0.00 | 0.00 | 100 | 1020.2 |
| 20260905035902 | 66 | 1 | 1.0 | 2.0 | 0.00 | 0.00 | 0.00 | 94 | 1019.5 |
| 20260905035804 | 66 | 164 | 1.0 | 2.0 | 0.00 | 0.00 | 0.00 | 94 | 1019.1 |
| 20260905035403 | 66 | 197 | 0.0 | 1.0 | 0.00 | 0.00 | 0.00 | 94 | 1019.4 |
| 20260905035306 | 66 | 8 | 0.0 | 1.0 | 0.00 | 0.00 | 0.00 | 94 | 1018.9 |
| 20260905034902 | 66 | 223 | 0.0 | 1.0 | 0.00 | 0.00 | 0.00 | 94 | 1019.4 |
| 20260905034804 | 66 | 277 | 0.0 | 1.0 | 0.00 | 0.00 | 0.00 | 94 | 1019.0 |
| 20260905034549 | 65 | 265 | 0.0 | 1.0 | 0.00 | 0.00 | 0.00 | 100 | 1020.3 |
| 20260905034403 | 66 | 45 | 0.0 | 1.0 | 0.00 | 0.00 | 0.00 | 94 | 1019.5 |
| 20260905034303 | 66 | 156 | 0.0 | 1.0 | 0.00 | 0.00 | 0.00 | 94 | 1019.1 |
| 20260905033902 | 66 | 45 | 1.0 | 2.0 | 0.00 | 0.00 | 0.00 | 94 | 1019.6 |
| 20260905033803 | 66 | 219 | 0.0 | 1.0 | 0.00 | 0.00 | 0.00 | 94 | 1019.1 |
| 20260905033403 | 66 | 45 | 1.0 | 2.0 | 0.00 | 0.00 | 0.00 | 94 | 1019.5 |
| 20260905033304 | 66 | 167 | 1.0 | 2.0 | 0.00 | 0.00 | 0.00 | 94 | 1019.0 |
| 20260905033051 | 65 | 146 | 0.0 | 1.0 | 0.00 | 0.00 | 0.00 | 100 | 1020.3 |
| 20260905032902 | 66 | 45 | 0.0 | 2.0 | 0.00 | 0.00 | 0.00 | 94 | 1019.6 |
| 20260905032803 | 66 | 163 | 1.0 | 2.0 | 0.00 | 0.00 | 0.00 | 94 | 1019.0 |
| 20260905032626 | 66 | 168 | 1.0 | 2.0 | 0.00 | 0.00 | 0.00 | 94 | 1019.6 |
| 20260905032306 | 66 | 160 | 1.0 | 2.0 | 0.00 | 0.00 | 0.00 | 94 | 1019.1 |
| 20260905031902 | 66 | 152 | 0.0 | 1.0 | 0.00 | 0.00 | 0.00 | 94 | 1019.6 |
| 20260905031550 | 65 | 0 | 0.0 | 1.0 | 0.00 | 0.00 | 0.00 | 100 | 1020.4 |
| 20260905031403 | 66 | 269 | 0.0 | 2.0 | 0.00 | 0.00 | 0.00 | 94 | 1019.6 |
| 20260905030902 | 66 | 178 | 0.0 | 2.0 | 0.00 | 0.00 | 0.00 | 94 | 1019.5 |
| 20260905030803 | 66 | 123 | 0.0 | 2.0 | 0.00 | 0.00 | 0.00 | 94 | 1019.0 |
| 20260905030404 | 66 | 171 | 1.0 | 2.0 | 0.00 | 0.00 | 0.00 | 94 | 1019.4 |
| 20260905030304 | 66 | 136 | 1.0 | 2.0 | 0.00 | 0.00 | 0.00 | 94 | 1019.0 |
| 20260905030044 | 65 | 205 | 0.0 | 2.0 | 0.00 | 0.00 | 0.00 | 100 | 1020.3 |
| 20260905025903 | 66 | 1 | 1.0 | 2.0 | 0.00 | 0.00 | 0.00 | 94 | 1019.5 |
| 20260905025803 | 66 | 161 | 0.0 | 1.0 | 0.00 | 0.00 | 0.00 | 94 | 1019.0 |
| 20260905025402 | 66 | 89 | 1.0 | 2.0 | 0.00 | 0.00 | 0.00 | 94 | 1019.6 |
| 20260905025306 | 66 | 139 | 1.0 | 2.0 | 0.00 | 0.00 | 0.00 | 94 | 1019.1 |
| 20260905024903 | 66 | 223 | 0.0 | 1.0 | 0.00 | 0.00 | 0.00 | 93 | 1019.6 |
| 20260905024803 | 66 | 198 | 0.0 | 1.0 | 0.00 | 0.00 | 0.00 | 93 | 1019.2 |
| 20260905024606 | 65 | 265 | 0.0 | 1.0 | 0.00 | 0.00 | 0.00 | 100 | 1020.5 |
| 20260905024402 | 66 | 206 | 0.0 | 1.0 | 0.00 | 0.00 | 0.00 | 93 | 1019.6 |
| 20260905024303 | 66 | 204 | 0.0 | 1.0 | 0.00 | 0.00 | 0.00 | 93 | 1019.2 |
| 20260905023901 | 66 | 314 | 0.0 | 1.0 | 0.00 | 0.00 | 0.00 | 93 | 1019.6 |
| 20260905023803 | 66 | 55 | 0.0 | 1.0 | 0.00 | 0.00 | 0.00 | 93 | 1019.3 |
| 20260905023628 | 66 | 45 | 0.0 | 1.0 | 0.00 | 0.00 | 0.00 | 93 | 1019.9 |
| 20260905023045 | 65 | 0 | 0.0 | 1.0 | 0.00 | 0.00 | 0.00 | 100 | 1020.7 |
| 20260905022902 | 66 | 89 | 0.0 | 1.0 | 0.00 | 0.00 | 0.00 | 93 | 1020.0 |
| 20260905022804 | 66 | 128 | 0.0 | 1.0 | 0.00 | 0.00 | 0.00 | 93 | 1019.6 |
| 20260905022402 | 66 | 178 | 0.0 | 1.0 | 0.00 | 0.00 | 0.00 | 93 | 1020.1 |
| 20260905021901 | 66 | 1 | 0.0 | 1.0 | 0.00 | 0.00 | 0.00 | 93 | 1020.0 |
| 20260905021803 | 66 | 17 | 0.0 | 1.0 | 0.00 | 0.00 | 0.00 | 93 | 1019.7 |
| 20260905021632 | 66 | 89 | 0.0 | 1.0 | 0.00 | 0.00 | 0.00 | 93 | 1020.2 |
| 20260905021544 | 65 | 0 | 0.0 | 1.0 | 0.00 | 0.00 | 0.00 | 100 | 1020.9 |
| 20260905021304 | 66 | 127 | 0.0 | 1.0 | 0.00 | 0.00 | 0.00 | 93 | 1019.9 |
| 20260905020903 | 66 | 269 | 0.0 | 1.0 | 0.00 | 0.00 | 0.00 | 93 | 1020.2 |
| 20260905020804 | 66 | 104 | 0.0 | 1.0 | 0.00 | 0.00 | 0.00 | 93 | 1019.7 |
| 20260905020402 | 66 | 206 | 0.0 | 1.0 | 0.00 | 0.00 | 0.00 | 93 | 1020.1 |
| 20260905020303 | 66 | 89 | 1.0 | 1.0 | 0.00 | 0.00 | 0.00 | 93 | 1019.7 |
| 20260905020049 | 65 | 0 | 0.0 | 1.0 | 0.00 | 0.00 | 0.00 | 100 | 1020.9 |
| 20260905015902 | 66 | 178 | 0.0 | 1.0 | 0.00 | 0.00 | 0.00 | 93 | 1020.1 |
| 20260905015804 | 66 | 350 | 0.0 | 1.0 | 0.00 | 0.00 | 0.00 | 93 | 1019.8 |
| 20260905015403 | 66 | 269 | 0.0 | 1.0 | 0.00 | 0.00 | 0.00 | 93 | 1020.1 |
| 20260905015306 | 66 | 251 | 0.0 | 1.0 | 0.00 | 0.00 | 0.00 | 93 | 1019.8 |
| 20260905014902 | 66 | 269 | 0.0 | 1.0 | 0.00 | 0.00 | 0.00 | 93 | 1020.3 |
| 20260905014804 | 66 | 96 | 0.0 | 1.0 | 0.00 | 0.00 | 0.00 | 93 | 1019.9 |
| 20260905014545 | 65 | 0 | 0.0 | 1.0 | 0.00 | 0.00 | 0.00 | 100 | 1021.0 |
| 20260905014404 | 66 | 89 | 0.0 | 1.0 | 0.00 | 0.00 | 0.00 | 93 | 1020.4 |
| 20260905014304 | 66 | 288 | 0.0 | 1.0 | 0.00 | 0.00 | 0.00 | 93 | 1020.0 |
| 20260905013903 | 66 | 206 | 0.0 | 1.0 | 0.00 | 0.00 | 0.00 | 93 | 1020.5 |
| 20260905013401 | 66 | 152 | 0.0 | 1.0 | 0.00 | 0.00 | 0.00 | 93 | 1020.5 |
| 20260905013303 | 66 | 164 | 0.0 | 1.0 | 0.00 | 0.00 | 0.00 | 93 | 1020.1 |
| 20260905013051 | 65 | 0 | 0.0 | 1.0 | 0.00 | 0.00 | 0.00 | 100 | 1021.2 |
| 20260905012902 | 66 | 178 | 0.0 | 1.0 | 0.00 | 0.00 | 0.00 | 93 | 1020.4 |
| 20260905012803 | 66 | 218 | 1.0 | 1.0 | 0.00 | 0.00 | 0.00 | 93 | 1019.9 |
| 20260905012402 | 66 | 1 | 0.0 | 1.0 | 0.00 | 0.00 | 0.00 | 93 | 1020.4 |
| 20260905012306 | 66 | 113 | 0.0 | 1.0 | 0.00 | 0.00 | 0.00 | 93 | 1020.1 |
| 20260905012127 | 66 | 269 | 0.0 | 1.0 | 0.00 | 0.00 | 0.00 | 93 | 1020.6 |
| 20260905011806 | 66 | 169 | 1.0 | 1.0 | 0.00 | 0.00 | 0.00 | 93 | 1020.1 |
| 20260905011552 | 66 | 0 | 0.0 | 1.0 | 0.00 | 0.00 | 0.00 | 100 | 1021.1 |
| 20260905011402 | 66 | 314 | 1.0 | 1.0 | 0.00 | 0.00 | 0.00 | 93 | 1020.4 |
| 20260905011304 | 66 | 217 | 1.0 | 1.0 | 0.00 | 0.00 | 0.00 | 93 | 1019.9 |
| 20260905010902 | 66 | 223 | 0.0 | 1.0 | 0.00 | 0.00 | 0.00 | 93 | 1020.5 |
| 20260905010803 | 66 | 235 | 1.0 | 1.0 | 0.00 | 0.00 | 0.00 | 93 | 1020.2 |
| 20260905010401 | 66 | 223 | 0.0 | 1.0 | 0.00 | 0.00 | 0.00 | 93 | 1020.6 |
| 20260905010044 | 66 | 196 | 0.0 | 1.0 | 0.00 | 0.00 | 0.00 | 100 | 1021.6 |
| 20260905005903 | 66 | 269 | 0.0 | 1.0 | 0.00 | 0.00 | 0.00 | 93 | 1020.7 |
| 20260905005803 | 66 | 239 | 0.0 | 1.0 | 0.00 | 0.00 | 0.00 | 92 | 1020.3 |
| 20260905005402 | 66 | 223 | 0.0 | 1.0 | 0.00 | 0.00 | 0.00 | 92 | 1020.7 |
| 20260905004902 | 66 | 1 | 0.0 | 1.0 | 0.00 | 0.00 | 0.00 | 92 | 1020.8 |
| 20260905004803 | 66 | 299 | 0.0 | 1.0 | 0.00 | 0.00 | 0.00 | 92 | 1020.3 |
| 20260905004559 | 66 | 265 | 0.0 | 1.0 | 0.00 | 0.00 | 0.00 | 100 | 1021.6 |
| 20260905004403 | 66 | 178 | 0.0 | 2.0 | 0.00 | 0.00 | 0.00 | 92 | 1020.8 |
| 20260905004304 | 66 | 3 | 0.0 | 1.0 | 0.00 | 0.00 | 0.00 | 92 | 1020.3 |
| 20260905003902 | 66 | 28 | 0.0 | 2.0 | 0.00 | 0.00 | 0.00 | 92 | 1020.8 |
| 20260905003803 | 66 | 47 | 1.0 | 2.0 | 0.00 | 0.00 | 0.00 | 92 | 1020.4 |
| 20260905003402 | 66 | 178 | 0.0 | 2.0 | 0.00 | 0.00 | 0.00 | 92 | 1020.9 |
| 20260905003348 | 66 | 63 | 1.0 | 2.0 | 0.00 | 0.00 | 0.00 | 92 | 1020.7 |
| 20260905003303 | 66 | 50 | 1.0 | 2.0 | 0.00 | 0.00 | 0.00 | 92 | 1020.4 |
| 20260905003048 | 66 | 68 | 1.0 | 2.0 | 0.00 | 0.00 | 0.00 | 100 | 1021.6 |
| 20260905002803 | 66 | 45 | 1.0 | 2.0 | 0.00 | 0.00 | 0.00 | 92 | 1020.4 |
| 20260905002402 | 66 | 1 | 0.0 | 1.0 | 0.00 | 0.00 | 0.00 | 92 | 1021.0 |
| 20260905002306 | 66 | 67 | 0.0 | 1.0 | 0.00 | 0.00 | 0.00 | 92 | 1020.6 |
| 20260905001903 | 66 | 63 | 1.0 | 1.0 | 0.00 | 0.00 | 0.00 | 92 | 1021.1 |
| 20260905001545 | 66 | 0 | 0.0 | 1.0 | 0.00 | 0.00 | 0.00 | 100 | 1021.9 |
| 20260905001402 | 67 | 1 | 0.0 | 1.0 | 0.00 | 0.00 | 0.00 | 92 | 1021.1 |
| 20260905001126 | 67 | 45 | 0.0 | 1.0 | 0.00 | 0.00 | 0.00 | 92 | 1021.3 |
| 20260905000804 | 66 | 40 | 0.0 | 1.0 | 0.00 | 0.00 | 0.00 | 92 | 1020.8 |
| 20260905000402 | 67 | 223 | 0.0 | 2.0 | 0.00 | 0.00 | 0.00 | 92 | 1021.3 |
| 20260905000303 | 67 | 247 | 0.0 | 1.0 | 0.00 | 0.00 | 0.00 | 92 | 1020.9 |
| 20260905000043 | 66 | 0 | 0.0 | 1.0 | 0.00 | 0.00 | 0.00 | 100 | 1022.2 |
| 20260904235903 | 67 | 178 | 1.0 | 2.0 | 0.00 | 0.00 | 0.00 | 92 | 1021.4 |
| 20260904235803 | 67 | 163 | 1.0 | 2.0 | 0.00 | 0.00 | 0.00 | 92 | 1020.9 |
| 20260904235404 | 67 | 178 | 0.0 | 2.0 | 0.00 | 0.00 | 0.00 | 92 | 1021.3 |
| 20260904234904 | 67 | 89 | 1.0 | 2.0 | 0.00 | 0.00 | 0.00 | 92 | 1021.3 |
| 20260904234803 | 67 | 54 | 1.0 | 2.0 | 0.00 | 0.00 | 0.00 | 92 | 1021.0 |
| 20260904234548 | 66 | 120 | 1.0 | 2.0 | 0.00 | 0.00 | 0.00 | 100 | 1022.3 |
| 20260904234402 | 67 | 28 | 1.0 | 2.0 | 0.00 | 0.00 | 0.00 | 92 | 1021.6 |
| 20260904234303 | 67 | 33 | 1.0 | 2.0 | 0.00 | 0.00 | 0.00 | 92 | 1021.2 |
| 20260904233903 | 67 | 59 | 2.0 | 2.0 | 0.00 | 0.00 | 0.00 | 92 | 1021.7 |
| 20260904233803 | 67 | 50 | 1.0 | 2.0 | 0.00 | 0.00 | 0.00 | 91 | 1021.2 |
| 20260904233403 | 67 | 63 | 0.0 | 1.0 | 0.00 | 0.00 | 0.00 | 91 | 1021.6 |
| 20260904233304 | 67 | 31 | 0.0 | 1.0 | 0.00 | 0.00 | 0.00 | 91 | 1021.2 |
| 20260904233059 | 66 | 0 | 0.0 | 1.0 | 0.00 | 0.00 | 0.00 | 100 | 1022.4 |
| 20260904232901 | 67 | 1 | 0.0 | 1.0 | 0.00 | 0.00 | 0.00 | 91 | 1021.6 |
| 20260904232803 | 67 | 39 | 0.0 | 1.0 | 0.00 | 0.00 | 0.00 | 91 | 1021.2 |
| 20260904232628 | 67 | 45 | 0.0 | 1.0 | 0.00 | 0.00 | 0.00 | 91 | 1021.7 |
| 20260904232306 | 67 | 345 | 0.0 | 1.0 | 0.00 | 0.00 | 0.00 | 91 | 1021.3 |
| 20260904231904 | 67 | 45 | 0.0 | 2.0 | 0.00 | 0.00 | 0.00 | 91 | 1021.8 |
| 20260904231803 | 67 | 240 | 0.0 | 1.0 | 0.00 | 0.00 | 0.00 | 91 | 1021.3 |
| 20260904231550 | 67 | 265 | 0.0 | 1.0 | 0.00 | 0.00 | 0.00 | 100 | 1022.5 |
| 20260904231401 | 67 | 269 | 0.0 | 2.0 | 0.00 | 0.00 | 0.00 | 92 | 1021.8 |
| 20260904231304 | 67 | 243 | 0.0 | 2.0 | 0.00 | 0.00 | 0.00 | 92 | 1021.3 |
| 20260904231131 | 67 | 152 | 1.0 | 2.0 | 0.00 | 0.00 | 0.00 | 91 | 1022.0 |
| 20260904230804 | 67 | 164 | 1.0 | 2.0 | 0.00 | 0.00 | 0.00 | 91 | 1021.4 |
| 20260904230402 | 67 | 142 | 1.0 | 3.0 | 0.00 | 0.00 | 0.00 | 92 | 1022.0 |
| 20260904230303 | 67 | 165 | 1.0 | 2.0 | 0.00 | 0.00 | 0.00 | 92 | 1021.4 |
| 20260904230043 | 67 | 144 | 1.0 | 2.0 | 0.00 | 0.00 | 0.00 | 100 | 1022.6 |
| 20260904225902 | 67 | 152 | 1.0 | 3.0 | 0.00 | 0.00 | 0.00 | 91 | 1021.9 |
| 20260904225803 | 67 | 159 | 1.0 | 3.0 | 0.00 | 0.00 | 0.00 | 91 | 1021.5 |
| 20260904225401 | 67 | 148 | 1.0 | 2.0 | 0.00 | 0.00 | 0.00 | 91 | 1022.0 |
| 20260904225305 | 67 | 158 | 1.0 | 2.0 | 0.00 | 0.00 | 0.00 | 91 | 1021.5 |
| 20260904224910 | 67 | 135 | 1.0 | 2.0 | 0.00 | 0.00 | 0.00 | 91 | 1022.0 |
| 20260904224804 | 67 | 174 | 1.0 | 2.0 | 0.00 | 0.00 | 0.00 | 91 | 1021.4 |
| 20260904224549 | 67 | 0 | 0.0 | 1.0 | 0.00 | 0.00 | 0.00 | 100 | 1022.7 |
| 20260904224402 | 67 | 178 | 0.0 | 2.0 | 0.00 | 0.00 | 0.00 | 91 | 1022.0 |
| 20260904224128 | 67 | 145 | 1.0 | 2.0 | 0.00 | 0.00 | 0.00 | 90 | 1022.0 |
| 20260904223803 | 67 | 156 | 1.0 | 2.0 | 0.00 | 0.00 | 0.00 | 90 | 1021.5 |
| 20260904223403 | 67 | 178 | 1.0 | 1.0 | 0.00 | 0.00 | 0.00 | 90 | 1022.0 |
| 20260904223303 | 67 | 134 | 0.0 | 1.0 | 0.00 | 0.00 | 0.00 | 90 | 1021.4 |
| 20260904223046 | 67 | 0 | 0.0 | 1.0 | 0.00 | 0.00 | 0.00 | 100 | 1022.7 |
| 20260904222902 | 67 | 135 | 1.0 | 1.0 | 0.00 | 0.00 | 0.00 | 90 | 1022.0 |
| 20260904222804 | 67 | 167 | 0.0 | 1.0 | 0.00 | 0.00 | 0.00 | 89 | 1021.4 |
| 20260904222402 | 67 | 223 | 0.0 | 1.0 | 0.00 | 0.00 | 0.00 | 89 | 1021.9 |
| 20260904222306 | 67 | 166 | 0.0 | 1.0 | 0.00 | 0.00 | 0.00 | 89 | 1021.3 |
| 20260904221902 | 67 | 206 | 0.0 | 1.0 | 0.00 | 0.00 | 0.00 | 89 | 1021.8 |
| 20260904221803 | 67 | 180 | 0.0 | 1.0 | 0.00 | 0.00 | 0.00 | 89 | 1021.4 |
| 20260904221544 | 75 | 0 | 0.0 | 0.0 | 0.00 | 0.00 | 0.00 | 100 | 1022.6 |
| 20260904221402 | 68 | 269 | 0.0 | 1.0 | 0.00 | 0.00 | 0.00 | 89 | 1021.9 |
| 20260904221304 | 68 | 182 | 0.0 | 1.0 | 0.00 | 0.00 | 0.00 | 89 | 1021.4 |
| 20260904220902 | 68 | 28 | 0.0 | 1.0 | 0.00 | 0.00 | 0.00 | 89 | 1022.0 |
| 20260904220402 | 68 | 45 | 0.0 | 1.0 | 0.00 | 0.00 | 0.00 | 89 | 1021.9 |
| 20260904220304 | 68 | 342 | 0.0 | 1.0 | 0.00 | 0.00 | 0.00 | 89 | 1021.4 |
| 20260904220044 | 75 | 0 | 0.0 | 1.0 | 0.00 | 0.00 | 0.00 | 100 | 1022.6 |
| 20260904215902 | 68 | 63 | 0.0 | 1.0 | 0.00 | 0.00 | 0.00 | 89 | 1021.9 |
| 20260904215804 | 68 | 10 | 0.0 | 1.0 | 0.00 | 0.00 | 0.00 | 89 | 1021.3 |
| 20260904215402 | 68 | 178 | 0.0 | 2.0 | 0.00 | 0.00 | 0.00 | 89 | 1021.8 |
| 20260904214903 | 68 | 63 | 1.0 | 2.0 | 0.00 | 0.00 | 0.00 | 89 | 1021.8 |
| 20260904214547 | 75 | 196 | 0.0 | 1.0 | 0.00 | 0.00 | 0.00 | 100 | 1022.6 |
| 20260904214402 | 68 | 152 | 1.0 | 2.0 | 0.00 | 0.00 | 0.00 | 89 | 1021.9 |
| 20260904214303 | 68 | 165 | 1.0 | 2.0 | 0.00 | 0.00 | 0.00 | 88 | 1021.3 |
| 20260904213902 | 68 | 152 | 1.0 | 2.0 | 0.00 | 0.00 | 0.00 | 88 | 1021.7 |
| 20260904213803 | 68 | 171 | 1.0 | 2.0 | 0.00 | 0.00 | 0.00 | 88 | 1021.1 |
| 20260904213401 | 68 | 45 | 1.0 | 2.0 | 0.00 | 0.00 | 0.00 | 88 | 1021.6 |
| 20260904213304 | 68 | 342 | 0.0 | 2.0 | 0.00 | 0.00 | 0.00 | 88 | 1021.2 |
| 20260904213044 | 75 | 0 | 1.0 | 1.0 | 0.00 | 0.00 | 0.00 | 100 | 1022.5 |
| 20260904212902 | 68 | 89 | 1.0 | 2.0 | 0.00 | 0.00 | 0.00 | 88 | 1021.7 |
| 20260904212803 | 68 | 56 | 1.0 | 2.0 | 0.00 | 0.00 | 0.00 | 88 | 1021.2 |
| 20260904212403 | 68 | 269 | 0.0 | 1.0 | 0.00 | 0.00 | 0.00 | 88 | 1021.8 |
| 20260904212306 | 68 | 328 | 0.0 | 1.0 | 0.00 | 0.00 | 0.00 | 88 | 1021.3 |
| 20260904211903 | 68 | 135 | 1.0 | 1.0 | 0.00 | 0.00 | 0.00 | 87 | 1022.0 |
| 20260904211804 | 68 | 241 | 1.0 | 1.0 | 0.00 | 0.00 | 0.00 | 87 | 1021.6 |
| 20260904211542 | 75 | 0 | 0.0 | 1.0 | 0.00 | 0.00 | 0.00 | 100 | 1022.7 |
| 20260904211402 | 68 | 135 | 1.0 | 1.0 | 0.00 | 0.00 | 0.00 | 87 | 1022.0 |
| 20260904211304 | 68 | 118 | 0.0 | 1.0 | 0.00 | 0.00 | 0.00 | 87 | 1021.5 |
| 20260904210902 | 69 | 178 | 1.0 | 1.0 | 0.00 | 0.00 | 0.00 | 87 | 1022.1 |
| 20260904210803 | 69 | 114 | 0.0 | 1.0 | 0.00 | 0.00 | 0.00 | 87 | 1021.5 |
| 20260904210402 | 69 | 178 | 0.0 | 1.0 | 0.00 | 0.00 | 0.00 | 86 | 1022.1 |
| 20260904210303 | 69 | 107 | 0.0 | 1.0 | 0.00 | 0.00 | 0.00 | 86 | 1021.6 |
| 20260904210049 | 75 | 0 | 0.0 | 1.0 | 0.00 | 0.00 | 0.00 | 100 | 1022.8 |
| 20260904205903 | 69 | 223 | 0.0 | 1.0 | 0.00 | 0.00 | 0.00 | 86 | 1022.2 |
| 20260904205803 | 69 | 355 | 0.0 | 1.0 | 0.00 | 0.00 | 0.00 | 86 | 1021.6 |
| 20260904205401 | 69 | 269 | 1.0 | 1.0 | 0.00 | 0.00 | 0.00 | 86 | 1022.1 |
| 20260904205305 | 69 | 233 | 1.0 | 2.0 | 0.00 | 0.00 | 0.00 | 86 | 1021.6 |
| 20260904204902 | 69 | 213 | 0.0 | 1.0 | 0.00 | 0.00 | 0.00 | 86 | 1022.0 |
| 20260904204544 | 75 | 221 | 0.0 | 1.0 | 0.00 | 0.00 | 0.00 | 100 | 1022.8 |
| 20260904204402 | 69 | 241 | 1.0 | 1.0 | 0.00 | 0.00 | 0.00 | 86 | 1022.1 |
| 20260904204304 | 69 | 229 | 0.0 | 1.0 | 0.00 | 0.00 | 0.00 | 86 | 1021.5 |
| 20260904203903 | 69 | 269 | 0.0 | 1.0 | 0.00 | 0.00 | 0.00 | 86 | 1022.1 |
| 20260904203804 | 69 | 221 | 0.0 | 1.0 | 0.00 | 0.00 | 0.00 | 86 | 1021.5 |
| 20260904203402 | 69 | 223 | 0.0 | 1.0 | 0.00 | 0.00 | 0.00 | 86 | 1022.1 |
| 20260904203303 | 69 | 220 | 1.0 | 1.0 | 0.00 | 0.00 | 0.00 | 86 | 1021.5 |
| 20260904203045 | 75 | 221 | 0.0 | 1.0 | 0.00 | 0.00 | 0.00 | 100 | 1022.7 |
| 20260904202905 | 69 | 234 | 0.0 | 1.0 | 0.00 | 0.00 | 0.00 | 85 | 1022.0 |
| 20260904202803 | 69 | 215 | 0.0 | 1.0 | 0.00 | 0.00 | 0.00 | 85 | 1021.5 |
| 20260904202404 | 69 | 269 | 0.0 | 1.0 | 0.00 | 0.00 | 0.00 | 85 | 1021.9 |
| 20260904201901 | 69 | 1 | 0.0 | 1.0 | 0.00 | 0.00 | 0.00 | 85 | 1022.0 |
| 20260904201803 | 69 | 244 | 0.0 | 1.0 | 0.00 | 0.00 | 0.00 | 85 | 1021.4 |
| 20260904201633 | 70 | 45 | 0.0 | 1.0 | 0.00 | 0.00 | 0.00 | 84 | 1021.9 |
| 20260904201547 | 75 | 51 | 0.0 | 0.0 | 0.00 | 0.00 | 0.00 | 100 | 1022.7 |
| 20260904201304 | 70 | 246 | 0.0 | 1.0 | 0.00 | 0.00 | 0.00 | 84 | 1021.4 |
| 20260904200902 | 70 | 223 | 0.0 | 1.0 | 0.00 | 0.00 | 0.00 | 84 | 1021.8 |
| 20260904200803 | 70 | 229 | 0.0 | 1.0 | 0.00 | 0.00 | 0.00 | 84 | 1021.3 |
| 20260904200401 | 70 | 269 | 0.0 | 1.0 | 0.00 | 0.00 | 0.00 | 84 | 1021.9 |
| 20260904200303 | 70 | 252 | 0.0 | 1.0 | 0.00 | 0.00 | 0.00 | 84 | 1021.3 |
| 20260904200120 | 70 | 45 | 0.0 | 1.0 | 0.00 | 0.00 | 0.00 | 84 | 1021.9 |
| 20260904200055 | 75 | 0 | 0.0 | 1.0 | 0.00 | 0.00 | 0.00 | 100 | 1022.6 |
| 20260904195905 | 70 | 45 | 0.0 | 1.0 | 0.00 | 0.00 | 0.00 | 84 | 1021.9 |
| 20260904195804 | 70 | 262 | 0.0 | 1.0 | 0.00 | 0.00 | 0.00 | 84 | 1021.4 |
| 20260904195627 | 70 | 223 | 0.0 | 1.0 | 0.00 | 0.00 | 0.00 | 84 | 1022.0 |
| 20260904195306 | 70 | 221 | 0.0 | 1.0 | 0.00 | 0.00 | 0.00 | 84 | 1021.4 |
| 20260904194902 | 70 | 251 | 0.0 | 1.0 | 0.00 | 0.00 | 0.00 | 84 | 1021.9 |
| 20260904194804 | 70 | 224 | 0.0 | 1.0 | 0.00 | 0.00 | 0.00 | 84 | 1021.3 |
| 20260904194545 | 75 | 0 | 0.0 | 1.0 | 0.00 | 0.00 | 0.00 | 100 | 1022.5 |
| 20260904194402 | 70 | 178 | 0.0 | 1.0 | 0.00 | 0.00 | 0.00 | 83 | 1021.7 |
| 20260904194303 | 70 | 69 | 0.0 | 1.0 | 0.00 | 0.00 | 0.00 | 83 | 1021.1 |
| 20260904193902 | 70 | 45 | 0.0 | 2.0 | 0.00 | 0.00 | 0.00 | 83 | 1021.7 |
| 20260904193804 | 70 | 352 | 0.0 | 2.0 | 0.00 | 0.00 | 0.00 | 83 | 1021.1 |
| 20260904193402 | 71 | 45 | 1.0 | 2.0 | 0.00 | 0.00 | 0.00 | 83 | 1021.6 |
| 20260904193303 | 71 | 53 | 1.0 | 2.0 | 0.00 | 0.00 | 0.00 | 83 | 1021.0 |
| 20260904193050 | 75 | 26 | 0.0 | 1.0 | 0.00 | 0.00 | 0.00 | 100 | 1022.3 |
| 20260904192903 | 71 | 63 | 0.0 | 1.0 | 0.00 | 0.00 | 0.00 | 83 | 1021.6 |
| 20260904192804 | 71 | 209 | 0.0 | 1.0 | 0.00 | 0.00 | 0.00 | 83 | 1021.0 |
| 20260904192646 | 71 | 89 | 0.0 | 1.0 | 0.00 | 0.00 | 0.00 | 83 | 1021.5 |
| 20260904192306 | 71 | 26 | 0.0 | 1.0 | 0.00 | 0.00 | 0.00 | 83 | 1021.0 |
| 20260904191904 | 71 | 206 | 0.0 | 1.0 | 0.00 | 0.00 | 0.00 | 82 | 1021.5 |
| 20260904191803 | 71 | 230 | 0.0 | 1.0 | 0.00 | 0.00 | 0.00 | 82 | 1021.0 |
| 20260904191550 | 75 | 0 | 0.0 | 1.0 | 0.00 | 0.00 | 0.00 | 100 | 1022.4 |
| 20260904191401 | 71 | 241 | 0.0 | 1.0 | 0.00 | 0.00 | 0.00 | 82 | 1021.6 |
| 20260904191351 | 71 | 241 | 1.0 | 3.0 | 0.00 | 0.00 | 0.00 | 82 | 1021.5 |
| 20260904191303 | 71 | 237 | 0.0 | 1.0 | 0.00 | 0.00 | 0.00 | 82 | 1021.1 |
| 20260904191102 | 71 | 135 | 0.0 | 2.0 | 0.00 | 0.00 | 0.00 | 82 | 1021.5 |
| 20260904190803 | 71 | 89 | 0.0 | 1.0 | 0.00 | 0.00 | 0.00 | 82 | 1020.9 |
| 20260904190303 | 71 | 215 | 1.0 | 3.0 | 0.00 | 0.00 | 0.00 | 82 | 1021.0 |
| 20260904190047 | 75 | 301 | 1.0 | 2.0 | 0.00 | 0.00 | 0.00 | 100 | 1022.4 |
| 20260904185903 | 71 | 1 | 1.0 | 3.0 | 0.00 | 0.00 | 0.00 | 81 | 1021.6 |
| 20260904185803 | 72 | 319 | 1.0 | 2.0 | 0.00 | 0.00 | 0.00 | 81 | 1021.0 |
| 20260904185402 | 72 | 286 | 1.0 | 4.0 | 0.00 | 0.00 | 0.00 | 81 | 1021.6 |
| 20260904185306 | 72 | 293 | 2.0 | 3.0 | 0.00 | 0.00 | 0.00 | 81 | 1021.0 |
| 20260904185129 | 72 | 257 | 2.0 | 4.0 | 0.00 | 0.00 | 0.00 | 80 | 1021.6 |
| 20260904184804 | 72 | 307 | 1.0 | 3.0 | 0.00 | 0.00 | 0.00 | 80 | 1021.1 |
| 20260904184559 | 75 | 273 | 1.0 | 2.0 | 0.00 | 0.00 | 0.00 | 99 | 1022.4 |
| 20260904184403 | 73 | 316 | 2.0 | 4.0 | 0.00 | 0.00 | 0.00 | 80 | 1021.5 |
| 20260904184304 | 73 | 280 | 1.0 | 2.0 | 0.00 | 0.00 | 0.00 | 80 | 1021.0 |
| 20260904183902 | 73 | 206 | 0.0 | 2.0 | 0.00 | 0.00 | 0.00 | 80 | 1021.5 |
| 20260904183856 | 73 | 314 | 1.0 | 2.0 | 0.00 | 0.00 | 0.00 | 79 | 1021.5 |
| 20260904183803 | 73 | 264 | 0.0 | 2.0 | 0.00 | 0.00 | 0.00 | 80 | 1021.0 |
| 20260904183304 | 73 | 275 | 1.0 | 2.0 | 0.00 | 0.00 | 0.00 | 79 | 1020.9 |
| 20260904183043 | 75 | 0 | 0.0 | 1.0 | 0.00 | 0.00 | 0.00 | 99 | 1022.2 |
| 20260904182903 | 74 | 241 | 0.0 | 2.0 | 0.00 | 0.00 | 0.00 | 80 | 1021.3 |
| 20260904182803 | 74 | 243 | 1.0 | 2.0 | 0.00 | 0.00 | 0.00 | 80 | 1020.8 |
| 20260904182402 | 74 | 1 | 0.0 | 2.0 | 0.00 | 0.00 | 0.00 | 79 | 1021.3 |
| 20260904182306 | 74 | 292 | 0.0 | 1.0 | 0.00 | 0.00 | 0.00 | 79 | 1020.8 |
| 20260904181902 | 74 | 314 | 0.0 | 2.0 | 0.00 | 0.00 | 0.00 | 79 | 1021.2 |
| 20260904181803 | 74 | 289 | 0.0 | 2.0 | 0.00 | 0.00 | 0.00 | 79 | 1020.7 |
| 20260904181549 | 75 | 309 | 1.0 | 1.0 | 0.00 | 0.00 | 0.00 | 98 | 1022.0 |
| 20260904181402 | 74 | 45 | 1.0 | 2.0 | 0.00 | 0.00 | 0.00 | 78 | 1021.2 |
| 20260904181304 | 74 | 285 | 1.0 | 2.0 | 0.00 | 0.00 | 0.00 | 78 | 1020.7 |
| 20260904180902 | 74 | 269 | 1.0 | 2.0 | 0.00 | 0.00 | 0.00 | 78 | 1021.2 |
| 20260904180803 | 74 | 39 | 1.0 | 2.0 | 0.00 | 0.00 | 0.00 | 79 | 1020.6 |
| 20260904180403 | 74 | 286 | 1.0 | 2.0 | 0.00 | 0.00 | 0.00 | 79 | 1021.1 |
| 20260904180304 | 74 | 254 | 0.0 | 2.0 | 0.00 | 0.00 | 0.00 | 79 | 1020.5 |
| 20260904180059 | 75 | 0 | 1.0 | 2.0 | 0.00 | 0.00 | 0.00 | 98 | 1021.9 |
| 20260904175903 | 74 | 223 | 1.0 | 2.0 | 0.00 | 0.00 | 0.00 | 79 | 1021.1 |
| 20260904175804 | 74 | 249 | 0.0 | 2.0 | 0.00 | 0.00 | 0.00 | 79 | 1020.6 |
| 20260904175402 | 74 | 269 | 0.0 | 2.0 | 0.00 | 0.00 | 0.00 | 79 | 1021.1 |
| 20260904175305 | 74 | 0 | 0.0 | 1.0 | 0.00 | 0.00 | 0.00 | 79 | 1020.6 |
| 20260904174902 | 74 | 223 | 1.0 | 2.0 | 0.00 | 0.00 | 0.00 | 79 | 1021.1 |
| 20260904174803 | 74 | 255 | 1.0 | 2.0 | 0.00 | 0.00 | 0.00 | 79 | 1020.6 |
| 20260904174542 | 75 | 0 | 0.0 | 1.0 | 0.00 | 0.00 | 0.00 | 99 | 1021.9 |
| 20260904174402 | 74 | 331 | 0.0 | 1.0 | 0.00 | 0.00 | 0.00 | 79 | 1021.2 |
| 20260904174304 | 74 | 231 | 1.0 | 2.0 | 0.00 | 0.00 | 0.00 | 80 | 1020.5 |
| 20260904173903 | 74 | 321 | 1.0 | 4.0 | 0.00 | 0.00 | 0.00 | 80 | 1021.1 |
| 20260904173803 | 74 | 222 | 1.0 | 2.0 | 0.00 | 0.00 | 0.00 | 80 | 1020.5 |
| 20260904173408 | 74 | 206 | 1.0 | 4.0 | 0.00 | 0.00 | 0.00 | 80 | 1021.0 |
| 20260904173130 | 74 | 314 | 1.0 | 2.0 | 0.00 | 0.00 | 0.00 | 79 | 1020.9 |
| 20260904173050 | 75 | 309 | 0.0 | 2.0 | 0.00 | 0.00 | 0.00 | 99 | 1021.7 |
| 20260904172803 | 74 | 247 | 1.0 | 3.0 | 0.00 | 0.00 | 0.00 | 79 | 1020.3 |
| 20260904172403 | 74 | 231 | 1.0 | 2.0 | 0.00 | 0.00 | 0.00 | 79 | 1020.9 |
| 20260904172305 | 74 | 231 | 1.0 | 2.0 | 0.00 | 0.00 | 0.00 | 79 | 1020.3 |
| 20260904171902 | 74 | 213 | 1.0 | 3.0 | 0.00 | 0.00 | 0.00 | 79 | 1020.8 |
| 20260904171803 | 74 | 241 | 1.0 | 5.0 | 0.00 | 0.00 | 0.00 | 78 | 1020.2 |
| 20260904171547 | 75 | 319 | 2.0 | 3.0 | 0.00 | 0.00 | 0.00 | 98 | 1021.5 |
| 20260904171404 | 74 | 1 | 2.0 | 3.0 | 0.00 | 0.00 | 0.00 | 78 | 1020.7 |
| 20260904171304 | 74 | 267 | 1.0 | 3.0 | 0.00 | 0.00 | 0.00 | 78 | 1020.1 |
| 20260904170902 | 74 | 223 | 1.0 | 3.0 | 0.00 | 0.00 | 0.00 | 78 | 1020.7 |
| 20260904170403 | 74 | 314 | 1.0 | 3.0 | 0.00 | 0.00 | 0.00 | 78 | 1020.6 |
| 20260904170303 | 74 | 255 | 1.0 | 3.0 | 0.00 | 0.00 | 0.00 | 78 | 1020.1 |
| 20260904170045 | 75 | 0 | 1.0 | 2.0 | 0.00 | 0.00 | 0.00 | 98 | 1021.4 |
| 20260904165902 | 74 | 250 | 1.0 | 4.0 | 0.00 | 0.00 | 0.00 | 78 | 1020.6 |
| 20260904165803 | 74 | 249 | 1.0 | 3.0 | 0.00 | 0.00 | 0.00 | 78 | 1020.1 |
| 20260904165401 | 74 | 219 | 2.0 | 4.0 | 0.00 | 0.00 | 0.00 | 78 | 1020.6 |
| 20260904165305 | 74 | 219 | 1.0 | 3.0 | 0.00 | 0.00 | 0.00 | 79 | 1020.0 |
| 20260904164903 | 74 | 223 | 2.0 | 3.0 | 0.00 | 0.00 | 0.00 | 79 | 1020.5 |
| 20260904164550 | 75 | 205 | 1.0 | 3.0 | 0.00 | 0.00 | 0.00 | 97 | 1021.2 |
| 20260904164404 | 74 | 206 | 1.0 | 3.0 | 0.00 | 0.00 | 0.00 | 79 | 1020.4 |
| 20260904164303 | 74 | 225 | 2.0 | 3.0 | 0.00 | 0.00 | 0.00 | 78 | 1019.8 |
| 20260904163902 | 74 | 336 | 1.0 | 3.0 | 0.00 | 0.00 | 0.00 | 79 | 1020.4 |
| 20260904163402 | 74 | 269 | 1.0 | 3.0 | 0.00 | 0.00 | 0.00 | 79 | 1020.4 |
| 20260904163054 | 75 | 9 | 1.0 | 4.0 | 0.00 | 0.00 | 0.00 | 97 | 1021.2 |
| 20260904162902 | 74 | 51 | 2.0 | 4.0 | 0.00 | 0.00 | 0.00 | 79 | 1020.3 |
| 20260904162804 | 74 | 318 | 1.0 | 3.0 | 0.00 | 0.00 | 0.00 | 79 | 1019.8 |